Temp
85 84 85 84 83 81 83 84 86 83 81 82 80 78 75 73 70 68 68 68 72 75 83 80 78 81 80 79 80 81 81 83 83 83 81 79 78 76 74 76 75 75 75 74 75 75 76 76 76 76 78 80 81 81 80 80 79 78 77 77 76 76 75 74 73 74 74 74 74 74 75 76 76 77
82 83 84 83 83 83 84 84 85 83 81 80 80 79 78 76 72 70 68 68 73 73 78 83 78 77 79 80 81 84 82 82 83 83 83 81 80 75 74 75 74 74 74 74 73 75 75 75 75 75 76 77 79 80 80 80 79 78 77 77 77 75 74 73 73 74 74 74 74 75 76 76 75 75
83 81 82 81 82 82 83 82 85 83 78 75 77 77 79 79 76 74 71 69 72 79 75 78 83 81 78 80 81 84 82 83 84 83 82 81 78 75 76 74 73 73 72 72 72 73 74 73 73 73 74 76 77 80 81 80 79 78 78 77 76 75 74 73 73 74 74 74 74 75 75 75 75 75
84 82 81 80 81 81 81 81 82 79 77 74 74 77 78 77 77 75 73 71 72 76 78 78 80 83 79 79 79 79 82 85 82 82 82 79 76 76 75 74 73 73 72 71 71 71 72 72 72 73 74 75 76 80 81 80 79 78 78 77 76 74 73 72 73 73 73 74 75 75 75 75 75 74
81 78 78 78 79 80 79 79 80 77 75 76 75 77 78 77 77 76 74 72 72 74 78 78 79 80 80 79 78 79 80 81 82 82 83 79 78 78 77 75 72 72 71 70 70 70 70 70 71 72 73 74 75 76 79 79 78 78 78 77 74 72 72 72 73 73 73 74 75 76 75 75 75 74
81 78 77 77 79 80 79 79 80 78 75 75 75 76 76 76 74 76 76 72 72 71 75 76 77 76 80 77 78 78 78 80 80 82 83 87 82 81 77 75 75 71 71 70 70 70 69 69 70 71 71 72 73 74 75 76 75 77 77 74 71 71 71 72 73 73 73 74 74 75 75 75 74 74
78 78 77 78 79 83 79 78 80 82 79 77 74 74 75 74 77 76 75 73 72 73 72 75 75 74 76 76 76 77 79 80 81 80 83 85 87 84 80 78 78 70 71 70 70 69 69 68 68 69 69 70 70 71 70 71 73 75 73 70 70 71 71 71 72 72 73 73 74 73 74 74 73 74
78 78 77 77 79 80 78 77 78 78 78 75 75 75 75 74 76 76 75 75 73 72 71 72 74 74 73 74 77 79 80 80 80 81 81 83 83 83 84 81 79 72 70 70 70 69 68 68 67 67 67 67 65 65 66 66 67 69 70 70 70 69 69 68 69 71 71 71 71 72 73 74 73 74
77 77 77 78 78 79 77 77 77 77 78 76 76 75 76 75 76 77 76 74 73 72 71 71 73 74 74 75 76 77 76 77 78 78 78 80 79 78 83 84 79 71 70 71 70 69 69 68 67 66 65 65 64 64 64 63 64 65 66 67 67 68 68 67 68 68 69 68 68 70 71 72 73 72
78 78 77 78 78 77 77 77 77 77 78 78 75 74 75 76 76 76 75 74 73 73 72 72 71 72 73 73 74 77 77 76 76 76 76 77 78 76 77 80 80 78 77 75 72 69 69 68 67 67 66 65 64 64 63 63 63 62 62 63 66 68 66 66 66 66 66 66 66 67 69 70 71 71
79 80 80 79 79 79 79 79 78 77 78 79 77 77 78 78 76 76 75 75 74 73 72 73 73 73 74 74 73 76 78 77 76 75 74 73 76 75 76 75 81 83 81 76 74 74 73 71 69 66 65 65 65 64 63 63 63 62 61 60 62 64 64 65 65 64 65 66 65 65 65 66 69 70
80 80 81 83 82 81 80 78 78 79 78 78 78 79 79 78 76 76 75 75 74 74 74 73 73 73 74 74 76 77 75 75 73 73 72 71 71 73 73 74 76 78 77 79 77 73 71 70 68 66 66 66 66 65 65 66 65 63 61 62 64 64 63 64 64 64 64 64 64 64 64 64 66 68
80 80 82 82 82 83 85 87 84 81 80 78 75 75 76 76 76 75 75 75 73 73 73 72 73 72 73 74 74 73 72 72 72 72 72 71 73 73 72 74 75 76 75 79 76 76 75 72 71 72 71 70 70 68 67 66 65 64 62 62 63 62 62 62 63 63 63 63 63 62 63 62 62 64
80 81 81 82 88 85 83 82 81 80 79 80 79 75 74 74 74 74 74 74 74 73 72 72 72 72 72 73 74 73 73 74 74 73 71 71 71 71 72 73 74 76 76 76 75 77 79 75 74 75 74 75 71 67 65 64 65 63 62 62 63 62 62 61 61 61 62 61 62 61 61 61 61 61
78 79 80 81 81 80 79 78 79 78 78 77 78 79 80 80 76 75 74 74 74 73 73 73 73 72 72 74 74 75 75 74 74 73 73 72 71 70 69 68 74 77 76 74 74 76 79 78 75 75 75 74 70 67 65 65 64 63 63 63 63 62 62 62 61 61 60 61 61 61 60 60 61 60
77 77 79 81 80 78 77 74 73 74 76 76 77 78 79 80 80 79 76 74 73 73 73 72 73 73 73 73 74 73 73 72 73 74 74 72 71 70 69 69 70 73 78 74 73 73 78 79 77 74 75 73 71 68 64 64 63 63 62 62 62 61 62 62 62 61 61 61 62 62 61 61 62 61
75 76 77 77 75 74 76 73 71 70 72 75 77 78 78 79 79 74 73 74 76 76 73 72 72 73 73 71 72 74 73 73 73 72 71 71 70 70 70 70 72 74 76 73 72 71 76 77 75 72 73 71 68 66 64 64 63 63 63 62 62 62 61 61 61 61 61 60 59 59 60 61 61 60
73 73 74 74 71 69 69 69 69 70 69 70 71 72 73 74 78 78 76 75 74 75 74 73 72 74 74 72 73 76 75 73 72 72 70 71 71 70 71 72 73 76 79 75 72 70 73 76 73 71 72 73 70 67 64 63 63 63 62 62 62 61 61 61 60 60 60 60 59 58 58 58 59 59
73 72 73 71 68 67 67 68 70 68 68 69 71 71 72 74 75 74 73 72 72 72 71 71 71 72 73 72 72 73 74 74 74 73 72 72 72 72 73 71 73 75 75 75 73 70 72 76 72 72 72 72 68 66 62 63 63 63 62 62 62 61 61 61 61 60 59 59 58 58 57 57 57 57
74 74 72 69 67 66 65 67 65 67 68 68 69 69 71 72 74 73 72 67 70 71 70 70 71 72 72 71 70 71 70 71 72 73 73 72 71 70 68 67 71 72 73 73 72 70 69 71 73 71 72 71 67 67 67 63 64 63 62 62 62 61 61 61 61 61 60 59 59 58 57 56 56 56
74 73 71 69 66 65 64 66 61 62 68 67 68 67 69 70 71 69 70 69 69 68 66 66 67 67 67 66 65 64 66 68 71 71 70 69 70 67 66 67 69 70 71 71 72 71 69 69 69 68 68 68 68 66 67 66 64 63 62 62 62 61 60 60 61 60 60 60 59 59 58 57 57 57
72 74 77 71 66 64 65 63 60 61 66 65 66 66 66 67 67 66 67 67 69 69 69 69 68 68 69 69 69 69 68 67 69 69 68 71 71 68 67 65 67 69 70 73 74 70 70 71 71 70 70 69 70 69 68 68 66 63 62 61 61 60 60 59 60 60 60 59 59 58 58 57 57 60
68 68 71 73 69 66 63 58 58 59 64 63 64 65 65 64 64 64 64 64 65 67 68 69 70 71 72 74 73 73 74 74 75 71 71 71 70 68 68 68 68 67 68 72 74 69 68 69 70 68 66 65 69 71 69 68 65 65 66 65 63 61 60 59 59 58 59 59 59 58 56 56 57 62
67 65 64 65 61 60 58 56 55 56 58 61 61 63 63 62 62 63 62 65 67 67 67 67 69 69 70 71 72 72 72 73 74 72 71 70 70 69 69 69 68 67 67 69 72 69 70 71 70 73 70 65 64 67 68 66 66 67 66 65 66 63 62 61 60 58 58 58 57 58 57 56 56 62
68 68 67 65 62 58 57 56 55 54 56 60 61 62 62 63 63 63 60 64 69 66 67 69 68 68 68 70 71 70 70 71 71 71 71 72 72 70 69 68 68 66 67 70 69 70 68 70 69 70 69 69 68 67 67 67 67 68 69 67 66 65 64 64 64 63 58 57 57 56 57 59 59 62
67 67 68 68 63 57 56 55 53 53 55 58 60 63 57 54 56 61 64 64 64 66 67 67 67 67 68 69 70 71 70 69 71 71 71 71 72 72 71 70 68 66 65 70 69 71 68 67 68 67 66 66 67 68 65 66 68 68 70 69 68 67 66 67 67 65 64 64 63 58 60 58 59 58
66 69 67 69 67 56 53 52 52 54 54 62 61 54 52 55 58 64 63 66 68 67 67 67 67 67 68 68 68 68 68 68 69 68 68 69 70 70 72 72 70 67 67 69 71 70 69 67 70 67 66 66 64 65 67 67 68 70 68 68 69 70 68 68 67 67 67 67 67 60 57 57 59 58
66 67 67 65 54 53 51 52 54 55 59 61 57 54 56 59 65 65 65 68 67 68 67 67 67 67 67 67 67 67 68 68 68 68 69 68 68 67 67 69 71 72 70 69 69 68 68 68 68 68 67 65 64 64 64 67 68 67 67 70 71 72 70 69 69 70 69 67 67 63 64 63 63 61
66 61 55 54 55 55 54 54 55 57 60 56 55 55 58 67 65 67 68 68 67 66 66 66 67 67 67 68 68 68 68 70 71 71 71 71 71 71 69 69 69 69 71 71 69 68 67 67 66 67 67 66 65 64 64 64 66 65 67 67 65 68 70 70 70 69 68 68 66 66 65 65 65 65
60 58 57 58 59 61 61 65 68 69 69 64 63 63 66 65 68 69 68 67 66 65 65 66 65 66 67 67 68 69 69 67 66 68 69 68 68 68 67 66 66 68 69 69 69 68 67 66 65 65 65 66 65 64 63 63 63 64 67 64 64 68 68 67 66 67 68 65 66 65 66 66 67 67
61 63 65 65 61 61 65 68 70 69 69 68 69 67 69 70 69 69 68 66 65 66 65 65 65 66 67 68 68 66 65 65 65 66 68 67 67 68 67 65 65 65 66 67 67 68 67 66 65 64 63 63 64 62 62 62 62 62 62 63 64 60 63 64 65 64 64 64 64 65 65 65 66 68
58 61 65 64 67 69 68 67 68 69 70 72 70 69 69 69 69 71 72 71 66 66 66 66 67 66 65 65 65 66 64 63 64 66 66 66 65 67 66 65 63 63 64 66 66 67 69 67 66 64 64 62 60 60 60 60 61 61 62 64 63 63 64 63 62 62 63 63 62 62 62 63 63 64
58 63 66 67 69 67 67 67 68 69 70 69 69 70 68 68 68 66 65 64 64 64 64 63 63 63 63 63 64 64 64 64 64 64 64 66 66 67 66 64 64 64 64 63 64 64 64 64 66 66 65 64 63 62 61 59 59 61 61 61 61 60 61 61 62 61 62 60 60 61 60 61 62 63
56 63 66 68 69 69 68 68 66 66 66 65 65 66 66 67 66 65 64 63 63 63 63 62 61 61 62 61 62 62 62 62 63 62 63 63 64 63 63 63 63 64 64 63 62 62 62 62 63 63 64 65 66 62 61 60 59 60 60 58 57 57 58 59 59 59 60 60 60 58 58 59 60 61
62 65 66 67 67 67 67 66 65 65 64 64 64 64 64 64 64 63 62 61 62 62 61 61 61 61 60 59 60 60 60 61 61 62 63 63 62 61 61 62 63 63 63 64 62 62 62 60 60 60 61 61 61 60 62 60 59 59 59 57 57 57 58 61 60 58 58 58 58 58 58 59 58 59
65 64 65 65 65 66 65 65 65 65 64 63 62 62 61 61 61 61 60 59 61 60 59 59 59 59 59 58 59 59 60 60 59 59 60 60 60 60 60 61 61 60 60 61 61 61 61 60 59 57 56 56 56 56 57 61 60 58 57 55 55 56 56 56 57 56 57 57 58 57 56 56 57 59
64 64 64 64 65 65 64 64 64 63 64 63 62 62 61 60 59 60 59 58 60 60 59 59 57 58 58 59 58 59 58 58 57 58 58 58 57 57 56 58 60 58 57 58 59 59 59 59 58 55 53 52 52 51 54 57 58 58 57 54 54 55 56 54 54 54 55 55 55 56 56 56 57 58
63 62 63 63 64 63 64 63 63 63 63 63 61 61 60 59 60 59 59 59 59 58 58 58 58 58 57 57 57 56 56 57 57 57 58 57 57 56 56 56 56 57 57 57 58 57 58 57 55 55 53 51 50 50 50 53 54 55 56 56 55 54 57 54 52 53 54 54 56 55 56 55 55 55
62 63 62 62 63 62 62 62 62 61 60 60 60 59 60 59 59 59 58 58 59 58 57 57 57 57 57 57 56 56 56 55 55 56 57 57 57 56 56 56 56 56 56 56 56 56 56 55 54 54 52 51 50 50 50 49 51 56 57 55 56 54 53 53 53 53 54 55 54 55 56 56 55 57
65 65 63 62 61 61 61 62 61 60 60 60 59 59 60 59 59 58 58 58 57 59 58 58 58 57 56 56 55 55 55 55 55 54 55 55 56 57 55 55 55 54 53 54 54 54 52 54 55 53 53 52 53 54 53 53 53 54 56 56 54 57 56 55 55 55 55 56 57 55 55 55 53 54
62 62 61 62 61 61 61 60 60 61 60 59 60 62 60 58 57 57 57 58 58 56 56 56 56 55 55 55 55 54 53 54 53 55 56 54 56 57 58 59 54 54 52 53 53 52 54 52 57 61 58 53 54 54 51 49 50 53 55 58 53 54 57 58 57 55 54 57 56 56 54 54 54 54
63 62 61 61 61 61 61 60 60 59 58 58 58 58 58 58 58 59 57 58 56 56 54 53 53 54 53 54 53 53 52 52 52 53 54 53 52 54 56 55 53 54 53 52 52 53 56 55 59 58 56 54 54 50 49 50 50 52 53 54 54 53 55 56 57 56 54 54 53 52 51 51 51 50
63 60 60 60 61 60 60 59 59 58 57 57 56 56 56 55 53 53 53 52 52 53 52 51 52 52 52 52 53 53 52 52 53 53 53 52 52 52 53 54 55 55 54 55 55 56 56 57 55 55 55 54 52 53 50 52 53 54 53 53 54 53 55 56 55 54 54 55 56 55 54 52 49 48
60 59 58 58 59 58 58 58 57 57 57 56 56 55 54 52 51 51 51 51 51 50 51 51 51 51 50 51 52 52 52 53 53 53 52 53 53 53 53 54 55 54 54 54 55 56 56 55 56 57 55 54 54 53 53 53 53 56 57 56 56 55 54 56 58 57 56 56 54 54 54 55 56 56
60 59 58 58 58 58 58 59 59 59 58 56 54 53 52 52 52 51 51 51 51 50 50 49 49 49 49 50 50 49 51 55 53 52 52 52 52 52 52 53 52 51 51 51 51 52 52 52 53 55 54 55 54 53 56 57 56 56 56 56 56 57 57 57 56 55 56 57 57 56 55 55 56 56
MSLP
1018.01 1017.97 1017.85 1017.97 1017.89 1018.05 1018.13 1018.05 1017.61 1017.57 1017.53 1017.65 1017.89 1018.05 1018.81 1019.37 1020.53 1021.17 1021.05 1020.29 1019.85 1018.33 1017.49 1018.17 1017.05 1016.25 1016.13 1016.05 1015.69 1015.57 1015.37 1015.17 1015.09 1015.05 1015.01 1014.97 1014.93 1015.05 1015.05 1015.05 1015.01 1014.81 1014.69 1014.81 1014.77 1014.61 1014.57 1014.49 1014.33 1014.21 1014.13 1014.05 1014.01 1013.97 1014.05 1014.21 1014.37 1014.53 1014.65 1014.77 1014.89 1015.01 1015.09 1015.21 1015.25 1015.25 1015.29 1015.33 1015.29 1015.33 1015.33 1015.29 1015.29 1015.25
1017.93 1017.89 1017.85 1017.85 1017.93 1017.69 1017.69 1017.65 1017.49 1017.61 1017.73 1018.09 1018.21 1018.01 1018.09 1018.37 1019.65 1020.09 1020.81 1020.41 1019.13 1018.85 1017.69 1017.37 1017.57 1016.65 1016.45 1016.09 1015.89 1015.57 1015.49 1015.17 1014.97 1014.89 1014.97 1014.85 1014.93 1015.05 1014.97 1015.01 1015.05 1014.77 1014.73 1014.77 1014.73 1014.57 1014.53 1014.45 1014.33 1014.25 1014.17 1014.09 1014.01 1014.01 1014.09 1014.17 1014.33 1014.49 1014.65 1014.77 1014.89 1015.01 1015.17 1015.25 1015.33 1015.37 1015.41 1015.45 1015.45 1015.41 1015.45 1015.57 1015.61 1015.69
1017.85 1018.01 1018.01 1017.73 1017.73 1017.49 1017.53 1017.53 1017.53 1017.97 1018.69 1018.93 1018.73 1018.73 1018.33 1018.29 1018.53 1019.17 1019.69 1020.69 1018.97 1018.01 1018.69 1017.61 1016.81 1016.89 1016.49 1016.13 1016.01 1015.77 1015.53 1015.25 1015.05 1014.93 1014.85 1014.69 1014.77 1014.89 1014.93 1015.01 1015.01 1014.81 1014.85 1014.85 1014.73 1014.61 1014.57 1014.41 1014.33 1014.29 1014.21 1014.17 1014.09 1014.05 1014.09 1014.21 1014.29 1014.49 1014.65 1014.81 1014.93 1015.01 1015.17 1015.25 1015.33 1015.41 1015.53 1015.53 1015.53 1015.53 1015.53 1015.61 1015.77 1015.89
1017.85 1018.01 1018.17 1018.05 1017.97 1017.77 1017.73 1017.85 1017.93 1018.25 1018.01 1018.17 1018.41 1018.33 1018.41 1018.25 1018.13 1018.41 1019.13 1019.77 1019.69 1017.89 1017.89 1017.53 1017.01 1016.61 1016.57 1016.13 1016.29 1016.01 1015.61 1015.13 1015.01 1014.93 1014.77 1014.65 1014.77 1014.89 1014.89 1014.89 1014.93 1014.85 1014.97 1015.01 1014.85 1014.65 1014.57 1014.45 1014.33 1014.25 1014.21 1014.17 1014.17 1014.13 1014.13 1014.25 1014.33 1014.49 1014.65 1014.81 1014.97 1015.05 1015.13 1015.21 1015.33 1015.41 1015.49 1015.57 1015.61 1015.61 1015.69 1015.69 1015.73 1015.89
1017.93 1018.05 1018.17 1018.13 1017.97 1017.73 1017.97 1018.01 1017.97 1017.93 1017.97 1018.01 1018.13 1018.01 1017.97 1018.25 1018.05 1018.33 1018.85 1019.45 1019.33 1018.21 1017.05 1017.13 1017.13 1016.65 1016.45 1016.57 1016.09 1016.17 1015.89 1015.61 1015.17 1014.85 1014.65 1014.65 1014.73 1014.85 1014.81 1014.77 1014.89 1014.93 1015.13 1015.17 1015.05 1014.81 1014.65 1014.53 1014.37 1014.29 1014.25 1014.17 1014.21 1014.25 1014.25 1014.37 1014.45 1014.57 1014.65 1014.85 1015.01 1015.13 1015.17 1015.21 1015.25 1015.37 1015.45 1015.53 1015.57 1015.61 1015.73 1015.81 1015.89 1015.93
1018.09 1018.17 1018.25 1018.21 1018.05 1017.81 1018.01 1017.97 1018.01 1017.85 1018.13 1018.09 1018.17 1018.17 1018.21 1018.17 1018.13 1017.89 1018.45 1018.89 1019.09 1019.01 1017.73 1017.49 1016.81 1016.85 1016.37 1017.01 1015.97 1016.29 1016.21 1015.89 1015.41 1015.25 1014.89 1014.53 1014.61 1014.77 1014.77 1014.81 1014.89 1015.01 1015.21 1015.29 1015.21 1015.05 1014.89 1014.65 1014.49 1014.45 1014.37 1014.29 1014.29 1014.37 1014.41 1014.53 1014.65 1014.73 1014.77 1014.93 1015.09 1015.17 1015.21 1015.25 1015.29 1015.37 1015.41 1015.49 1015.57 1015.61 1015.69 1015.81 1015.93 1016.05
1018.01 1018.13 1018.25 1018.29 1018.05 1017.77 1017.97 1017.97 1017.89 1017.77 1017.93 1018.01 1018.09 1018.13 1017.97 1018.13 1017.97 1017.77 1017.89 1018.41 1018.93 1018.77 1018.37 1017.41 1017.49 1017.13 1016.77 1016.89 1016.53 1016.09 1015.97 1015.73 1015.45 1015.45 1015.17 1014.97 1014.73 1014.61 1014.77 1014.89 1014.89 1015.09 1015.25 1015.33 1015.29 1015.29 1015.13 1014.93 1014.69 1014.57 1014.57 1014.49 1014.45 1014.49 1014.61 1014.69 1014.73 1014.85 1014.97 1015.09 1015.13 1015.21 1015.21 1015.33 1015.37 1015.41 1015.45 1015.45 1015.53 1015.61 1015.65 1015.77 1015.85 1015.97
1018.13 1018.25 1018.33 1018.13 1017.97 1017.89 1018.09 1018.05 1018.05 1017.89 1017.89 1018.01 1018.09 1017.97 1017.85 1017.93 1017.89 1017.73 1017.69 1017.73 1018.21 1018.29 1018.61 1017.77 1017.57 1017.01 1017.09 1016.69 1016.21 1015.97 1015.77 1015.77 1015.57 1015.33 1015.13 1014.81 1014.93 1014.81 1014.69 1014.81 1014.97 1015.13 1015.25 1015.29 1015.33 1015.41 1015.33 1015.13 1014.97 1014.81 1014.73 1014.69 1014.65 1014.65 1014.73 1014.81 1014.93 1015.01 1015.09 1015.17 1015.25 1015.25 1015.25 1015.33 1015.41 1015.49 1015.53 1015.49 1015.53 1015.61 1015.65 1015.73 1015.85 1015.89
1018.05 1018.09 1018.17 1018.01 1017.89 1017.89 1018.17 1018.05 1018.01 1017.85 1017.93 1017.93 1017.81 1017.85 1017.77 1017.81 1017.69 1017.61 1017.57 1017.61 1017.73 1018.17 1018.37 1018.01 1017.17 1016.89 1016.85 1016.49 1016.29 1016.01 1016.29 1015.89 1015.57 1015.29 1015.33 1015.21 1015.05 1014.97 1014.69 1014.65 1014.85 1015.13 1015.21 1015.21 1015.29 1015.41 1015.41 1015.21 1015.09 1015.01 1014.93 1014.85 1014.73 1014.69 1014.77 1014.85 1014.93 1015.01 1015.05 1015.13 1015.21 1015.25 1015.25 1015.25 1015.37 1015.45 1015.57 1015.65 1015.65 1015.69 1015.73 1015.77 1015.85 1015.93
1017.81 1017.89 1017.89 1017.81 1017.73 1017.81 1018.05 1018.05 1017.85 1017.77 1017.81 1017.81 1017.81 1017.85 1017.81 1017.77 1017.61 1017.69 1017.53 1017.49 1017.69 1017.89 1017.97 1017.93 1017.73 1017.05 1017.09 1016.81 1016.49 1015.97 1015.93 1016.21 1016.17 1015.85 1015.49 1015.29 1015.13 1015.21 1015.25 1015.01 1014.89 1014.93 1014.97 1015.09 1015.21 1015.33 1015.45 1015.41 1015.25 1015.17 1015.05 1014.93 1014.85 1014.81 1014.85 1014.85 1014.93 1014.97 1015.01 1015.05 1015.13 1015.17 1015.17 1015.21 1015.25 1015.33 1015.41 1015.53 1015.73 1015.81 1015.85 1015.89 1015.97 1016.05
1017.53 1017.57 1017.61 1017.53 1017.49 1017.61 1017.57 1017.69 1017.69 1017.65 1017.65 1017.65 1017.69 1017.57 1017.57 1017.45 1017.61 1017.65 1017.57 1017.53 1017.73 1017.85 1017.89 1017.73 1017.53 1017.45 1016.81 1016.77 1016.93 1015.93 1015.57 1015.69 1015.85 1016.21 1016.29 1016.21 1015.49 1015.29 1015.37 1015.41 1014.85 1014.65 1014.77 1014.73 1014.73 1014.89 1015.13 1015.29 1015.33 1015.37 1015.25 1015.01 1014.89 1014.93 1015.05 1015.05 1015.01 1015.05 1015.01 1015.01 1015.05 1015.13 1015.13 1015.17 1015.21 1015.29 1015.33 1015.37 1015.49 1015.65 1015.77 1015.89 1015.97 1016.05
1017.37 1017.33 1017.25 1017.21 1017.13 1017.21 1017.21 1017.33 1017.33 1017.37 1017.69 1017.57 1017.73 1017.45 1017.41 1017.41 1017.53 1017.73 1017.65 1017.69 1017.73 1017.81 1017.85 1017.85 1017.69 1017.37 1017.21 1016.73 1016.29 1015.97 1015.97 1016.29 1016.21 1016.05 1016.33 1016.69 1016.29 1015.85 1015.41 1015.17 1015.25 1014.89 1014.77 1014.97 1014.97 1014.97 1015.17 1015.33 1015.33 1015.41 1015.41 1015.17 1015.01 1014.97 1015.05 1015.09 1015.13 1015.17 1015.13 1015.09 1015.09 1015.13 1015.17 1015.17 1015.21 1015.25 1015.33 1015.41 1015.45 1015.45 1015.49 1015.61 1015.77 1015.93
1017.25 1017.21 1017.09 1017.01 1016.93 1016.85 1016.89 1016.85 1016.97 1017.17 1017.29 1017.61 1017.93 1017.77 1017.65 1017.73 1017.77 1017.69 1017.61 1017.61 1017.65 1017.73 1017.77 1017.77 1017.45 1017.49 1017.37 1017.05 1016.93 1016.81 1016.81 1016.85 1016.69 1016.13 1016.09 1016.37 1016.09 1015.89 1015.77 1015.21 1014.77 1014.69 1014.77 1014.65 1014.89 1015.09 1015.09 1015.37 1015.41 1015.37 1015.45 1015.25 1015.09 1015.05 1015.09 1015.05 1015.05 1015.13 1015.17 1015.17 1015.17 1015.17 1015.17 1015.21 1015.21 1015.25 1015.33 1015.41 1015.49 1015.57 1015.61 1015.65 1015.69 1015.69
1017.09 1017.13 1017.09 1016.97 1016.85 1017.05 1017.13 1017.25 1017.37 1017.49 1017.53 1017.49 1017.57 1017.73 1017.73 1017.73 1017.77 1017.81 1017.81 1017.73 1017.61 1017.69 1017.85 1017.73 1017.53 1017.61 1017.45 1017.09 1016.81 1016.77 1016.41 1016.09 1015.93 1016.17 1016.29 1016.65 1016.17 1016.09 1016.09 1015.49 1014.81 1014.41 1014.61 1014.77 1015.09 1014.89 1014.65 1015.01 1015.25 1015.13 1015.29 1015.05 1015.01 1015.13 1015.13 1015.05 1015.05 1015.09 1015.13 1015.09 1015.13 1015.13 1015.17 1015.21 1015.21 1015.25 1015.33 1015.45 1015.57 1015.69 1015.77 1015.81 1015.85 1015.81
1017.45 1017.29 1017.09 1017.13 1017.25 1017.33 1017.49 1017.53 1017.61 1017.65 1017.65 1017.65 1017.57 1017.45 1017.29 1017.21 1017.37 1017.69 1017.73 1017.65 1017.49 1017.65 1017.61 1017.29 1017.25 1017.29 1017.17 1016.77 1016.41 1016.29 1016.09 1015.89 1015.97 1016.01 1016.05 1016.21 1016.29 1016.57 1016.77 1016.77 1015.25 1014.17 1014.45 1014.77 1014.97 1014.89 1014.37 1014.57 1015.17 1015.09 1015.13 1015.01 1015.09 1015.13 1015.13 1015.01 1014.93 1015.01 1015.05 1015.09 1015.09 1015.09 1015.13 1015.13 1015.17 1015.21 1015.25 1015.33 1015.49 1015.61 1015.69 1015.81 1015.93 1015.97
1017.49 1017.49 1017.37 1017.29 1017.41 1017.57 1017.73 1017.85 1017.89 1017.85 1017.73 1017.61 1017.45 1017.33 1017.21 1017.05 1016.85 1016.73 1017.09 1017.33 1017.41 1017.37 1017.45 1017.41 1017.17 1017.05 1017.01 1016.65 1016.33 1016.29 1016.25 1016.21 1016.05 1015.77 1015.81 1016.05 1016.29 1016.45 1016.61 1016.41 1016.29 1014.77 1014.09 1014.77 1015.05 1015.05 1014.25 1014.25 1014.73 1015.05 1015.01 1014.97 1015.05 1015.13 1015.13 1015.01 1015.01 1014.89 1014.93 1015.05 1015.13 1015.17 1015.17 1015.17 1015.21 1015.21 1015.25 1015.29 1015.33 1015.41 1015.53 1015.65 1015.73 1015.81
1017.57 1017.57 1017.61 1017.73 1017.89 1017.93 1017.85 1017.93 1017.97 1017.97 1017.81 1017.57 1017.41 1017.25 1017.13 1016.93 1016.69 1016.57 1016.41 1016.33 1016.49 1016.53 1016.93 1017.13 1017.05 1016.89 1016.69 1016.77 1016.45 1016.09 1016.17 1016.01 1016.25 1015.89 1016.25 1016.17 1016.25 1016.37 1016.45 1016.09 1015.69 1014.93 1014.17 1014.65 1015.05 1015.25 1014.49 1014.13 1014.73 1015.09 1015.01 1014.97 1015.09 1015.17 1015.13 1015.01 1014.97 1014.93 1014.89 1014.85 1014.97 1015.13 1015.21 1015.25 1015.29 1015.29 1015.33 1015.37 1015.37 1015.37 1015.41 1015.45 1015.53 1015.65
1017.61 1017.61 1017.81 1018.01 1018.29 1018.33 1018.21 1018.13 1018.09 1018.01 1017.93 1017.77 1017.57 1017.41 1017.21 1017.05 1016.73 1016.49 1016.33 1016.33 1016.33 1016.41 1016.65 1016.81 1016.97 1016.49 1016.29 1016.57 1016.13 1015.65 1015.49 1015.85 1015.97 1015.85 1016.05 1016.13 1016.13 1016.09 1016.09 1015.53 1015.37 1014.73 1014.25 1014.97 1015.09 1015.33 1014.77 1014.29 1014.73 1015.17 1015.05 1014.89 1015.09 1015.09 1015.05 1015.01 1015.01 1014.97 1014.89 1014.89 1014.93 1014.97 1015.05 1015.17 1015.25 1015.29 1015.33 1015.41 1015.45 1015.45 1015.49 1015.49 1015.53 1015.61
1017.41 1017.57 1017.73 1018.05 1018.33 1018.41 1018.33 1018.21 1018.17 1018.13 1018.05 1017.89 1017.69 1017.49 1017.33 1017.09 1016.81 1016.77 1016.89 1016.89 1016.81 1016.85 1016.77 1016.77 1016.65 1016.41 1016.13 1016.05 1015.89 1015.69 1015.41 1015.37 1015.33 1015.37 1015.57 1015.57 1015.57 1015.49 1015.21 1015.13 1014.89 1014.73 1014.25 1014.41 1014.77 1015.81 1015.01 1014.37 1014.85 1014.97 1014.93 1014.93 1015.09 1015.21 1015.25 1015.13 1015.09 1015.09 1015.09 1015.01 1014.97 1014.97 1015.01 1015.09 1015.21 1015.25 1015.33 1015.41 1015.45 1015.49 1015.49 1015.53 1015.57 1015.61
1017.37 1017.53 1017.85 1018.13 1018.33 1018.33 1018.33 1018.25 1018.17 1018.13 1018.05 1017.89 1017.77 1017.73 1017.49 1017.25 1016.93 1016.93 1016.97 1016.93 1016.85 1016.85 1016.77 1016.61 1016.41 1016.17 1015.93 1015.77 1015.69 1015.57 1015.49 1015.37 1015.17 1015.05 1015.01 1015.17 1015.33 1015.57 1015.65 1015.81 1015.17 1015.13 1014.25 1014.25 1014.69 1015.17 1015.21 1014.49 1014.69 1014.97 1014.85 1014.89 1015.21 1015.33 1015.37 1015.41 1015.29 1015.21 1015.17 1015.13 1015.09 1015.05 1015.09 1015.13 1015.17 1015.25 1015.29 1015.33 1015.41 1015.45 1015.53 1015.53 1015.57 1015.65
1017.69 1017.81 1017.97 1018.13 1018.29 1018.37 1018.37 1018.33 1018.33 1018.17 1017.97 1017.93 1017.89 1017.93 1017.81 1017.57 1017.29 1017.37 1017.01 1016.77 1016.73 1016.61 1016.45 1016.33 1016.13 1015.93 1015.65 1015.49 1015.37 1015.25 1015.17 1015.17 1015.09 1015.13 1015.41 1015.53 1015.25 1015.77 1016.05 1015.93 1015.73 1015.13 1014.49 1014.21 1014.25 1014.73 1015.13 1014.61 1014.57 1014.97 1015.09 1015.25 1015.45 1015.57 1015.53 1015.49 1015.45 1015.37 1015.37 1015.29 1015.21 1015.13 1015.09 1015.13 1015.21 1015.25 1015.29 1015.33 1015.37 1015.41 1015.45 1015.57 1015.65 1015.69
1017.89 1017.89 1017.97 1018.17 1018.33 1018.41 1018.37 1018.33 1018.33 1018.21 1018.05 1018.09 1018.09 1018.09 1018.05 1017.89 1017.85 1017.69 1017.37 1017.17 1016.85 1016.53 1016.33 1016.13 1015.97 1015.77 1015.53 1015.29 1015.13 1014.97 1014.85 1014.85 1014.89 1015.25 1015.73 1015.25 1015.17 1015.65 1015.69 1015.93 1015.53 1014.97 1014.57 1014.41 1014.01 1014.73 1014.81 1014.37 1014.29 1014.93 1015.09 1015.17 1015.25 1015.53 1015.57 1015.53 1015.45 1015.45 1015.53 1015.61 1015.53 1015.33 1015.21 1015.17 1015.17 1015.25 1015.37 1015.45 1015.45 1015.49 1015.49 1015.61 1015.69 1015.77
1018.29 1018.37 1018.33 1018.33 1018.37 1018.41 1018.45 1018.49 1018.41 1018.37 1018.29 1018.33 1018.29 1018.21 1018.17 1018.25 1018.17 1017.89 1017.73 1017.57 1017.29 1016.89 1016.61 1016.25 1015.97 1015.73 1015.41 1015.17 1015.05 1014.81 1014.61 1014.49 1014.49 1014.73 1014.97 1014.97 1015.29 1015.61 1015.53 1015.49 1015.41 1015.53 1015.05 1014.57 1014.17 1015.01 1014.81 1014.57 1014.33 1014.53 1015.53 1015.93 1015.37 1015.13 1015.37 1015.49 1015.45 1015.53 1015.57 1015.65 1015.69 1015.61 1015.53 1015.37 1015.29 1015.33 1015.37 1015.41 1015.49 1015.53 1015.57 1015.65 1015.69 1015.81
1018.61 1018.69 1018.69 1018.61 1018.57 1018.57 1018.61 1018.61 1018.53 1018.45 1018.49 1018.45 1018.37 1018.29 1018.33 1018.33 1018.21 1017.89 1017.77 1017.41 1017.21 1017.05 1016.85 1016.53 1016.13 1015.93 1015.53 1015.25 1015.01 1014.85 1014.65 1014.45 1014.33 1014.41 1014.53 1014.73 1015.01 1015.33 1015.41 1015.29 1015.25 1015.45 1015.29 1014.61 1014.25 1014.89 1014.45 1014.25 1014.61 1014.17 1014.57 1015.45 1016.17 1015.49 1015.37 1015.57 1015.53 1015.65 1015.69 1015.77 1015.81 1015.69 1015.73 1015.73 1015.53 1015.41 1015.29 1015.37 1015.45 1015.49 1015.45 1015.49 1015.65 1015.77
1018.69 1018.77 1018.73 1018.69 1018.73 1018.69 1018.57 1018.53 1018.49 1018.45 1018.45 1018.45 1018.41 1018.37 1018.37 1018.37 1018.25 1018.09 1017.97 1017.53 1017.21 1017.13 1016.77 1016.53 1016.29 1016.09 1015.81 1015.49 1015.17 1015.01 1014.77 1014.57 1014.37 1014.37 1014.45 1014.53 1014.61 1014.85 1015.09 1015.17 1015.21 1015.33 1015.09 1014.57 1014.29 1014.49 1014.97 1014.69 1014.77 1014.61 1014.73 1014.77 1015.21 1015.57 1015.57 1015.65 1015.61 1015.69 1015.61 1015.69 1015.81 1015.73 1015.85 1015.89 1015.73 1015.57 1015.45 1015.37 1015.49 1015.61 1015.61 1015.37 1015.41 1015.45
1018.69 1018.69 1018.61 1018.65 1018.77 1018.65 1018.61 1018.57 1018.49 1018.41 1018.41 1018.37 1018.37 1018.29 1018.33 1018.25 1018.21 1018.17 1018.01 1017.77 1017.41 1017.09 1016.85 1016.73 1016.61 1016.41 1016.21 1015.93 1015.69 1015.41 1015.25 1015.01 1014.69 1014.69 1014.73 1014.73 1014.69 1014.61 1014.61 1014.69 1014.97 1015.49 1015.49 1014.57 1014.13 1014.29 1014.65 1015.21 1015.21 1015.17 1015.33 1015.41 1015.49 1015.37 1015.93 1015.93 1015.57 1015.53 1015.45 1015.49 1015.53 1015.57 1015.69 1015.77 1015.85 1015.73 1015.49 1015.41 1015.45 1015.53 1015.57 1015.61 1015.45 1015.45
1018.77 1018.57 1018.61 1018.65 1018.65 1018.61 1018.61 1018.57 1018.49 1018.37 1018.41 1018.33 1018.33 1018.37 1018.33 1018.25 1018.21 1018.17 1018.05 1017.69 1017.41 1017.29 1017.13 1017.01 1017.01 1016.81 1016.57 1016.45 1016.29 1016.05 1015.85 1015.61 1015.45 1015.33 1015.21 1015.09 1015.01 1015.05 1014.93 1014.73 1014.85 1015.17 1015.13 1014.77 1014.45 1014.29 1014.33 1014.93 1014.81 1015.05 1015.61 1015.61 1015.93 1015.77 1015.73 1015.97 1015.65 1015.21 1015.57 1015.53 1015.45 1015.21 1015.29 1015.45 1015.69 1015.61 1015.45 1015.37 1015.37 1015.49 1015.65 1015.69 1015.73 1015.69
1018.77 1018.73 1018.77 1018.77 1018.73 1018.53 1018.41 1018.37 1018.37 1018.33 1018.33 1018.37 1018.33 1018.33 1018.25 1018.21 1018.13 1018.17 1018.05 1017.85 1017.77 1017.65 1017.49 1017.41 1017.37 1017.29 1017.01 1016.81 1016.77 1016.61 1016.33 1016.09 1015.85 1015.69 1015.57 1015.53 1015.41 1015.45 1015.65 1015.37 1015.05 1014.93 1014.93 1014.93 1014.81 1014.73 1014.69 1015.01 1015.13 1015.05 1015.09 1015.53 1016.01 1016.17 1016.17 1015.73 1015.65 1015.57 1015.65 1015.21 1015.13 1015.13 1015.17 1015.25 1015.21 1015.29 1015.25 1015.21 1015.37 1015.53 1015.65 1015.69 1015.77 1015.89
1018.89 1018.89 1018.69 1018.57 1018.49 1018.33 1018.21 1018.09 1018.13 1018.21 1018.17 1018.21 1018.37 1018.37 1018.37 1018.33 1018.33 1018.21 1018.17 1018.21 1018.13 1018.17 1018.17 1018.01 1017.77 1017.61 1017.37 1017.21 1017.05 1016.77 1016.53 1016.25 1015.97 1015.89 1015.85 1015.65 1015.57 1015.53 1015.53 1015.45 1015.33 1015.21 1015.13 1015.13 1015.17 1015.21 1015.33 1015.37 1015.45 1015.37 1015.45 1015.61 1015.89 1016.13 1016.01 1016.17 1015.89 1015.89 1015.53 1015.49 1015.49 1015.21 1015.09 1014.81 1014.81 1015.01 1015.13 1015.25 1015.49 1015.69 1015.69 1015.57 1015.61 1015.65
1018.81 1018.57 1018.41 1018.33 1018.25 1018.17 1018.05 1017.97 1017.97 1018.13 1018.13 1018.09 1018.33 1018.45 1018.45 1018.45 1018.25 1018.25 1018.37 1018.41 1018.49 1018.65 1018.57 1018.45 1018.33 1018.05 1017.69 1017.41 1017.17 1016.93 1016.77 1016.77 1016.85 1016.57 1016.41 1016.29 1016.17 1016.01 1015.85 1015.73 1015.81 1015.73 1015.49 1015.41 1015.45 1015.49 1015.53 1015.57 1015.61 1015.65 1015.69 1015.65 1015.73 1015.93 1015.93 1015.85 1015.97 1015.89 1015.65 1015.73 1015.65 1015.29 1015.33 1015.29 1015.25 1015.21 1015.29 1015.57 1015.69 1015.69 1015.57 1015.57 1015.61 1015.65
1018.77 1018.49 1018.25 1018.13 1018.05 1018.01 1017.77 1017.81 1017.81 1017.97 1018.17 1018.37 1018.49 1018.49 1018.45 1018.37 1018.37 1018.33 1018.41 1018.61 1018.73 1018.77 1018.77 1018.69 1018.53 1018.25 1018.01 1017.65 1017.45 1017.41 1017.33 1017.29 1017.13 1016.89 1016.81 1016.77 1016.69 1016.53 1016.41 1016.41 1016.41 1016.25 1016.05 1015.81 1015.69 1015.73 1015.77 1015.89 1015.93 1015.97 1016.13 1016.21 1016.05 1016.09 1016.05 1015.93 1016.09 1016.01 1015.93 1015.73 1015.53 1016.13 1016.17 1015.85 1015.73 1015.69 1015.69 1015.65 1015.57 1015.53 1015.49 1015.45 1015.53 1015.49
1019.05 1018.57 1018.09 1017.77 1017.61 1017.61 1017.73 1017.81 1018.05 1018.29 1018.33 1018.49 1018.69 1018.73 1018.65 1018.69 1018.61 1018.53 1018.37 1018.41 1018.69 1018.85 1018.85 1018.77 1018.61 1018.49 1018.33 1018.29 1018.13 1017.89 1017.77 1017.65 1017.41 1017.13 1017.09 1017.09 1016.97 1016.73 1016.65 1016.77 1016.85 1016.69 1016.49 1016.29 1016.17 1016.05 1016.01 1016.05 1016.17 1016.17 1016.21 1016.29 1016.29 1016.05 1015.89 1015.89 1016.01 1016.05 1016.05 1015.93 1015.97 1016.01 1015.93 1016.09 1016.13 1016.05 1015.89 1015.73 1015.77 1015.85 1015.77 1015.69 1015.81 1015.81
1018.81 1018.33 1017.89 1017.69 1017.49 1017.61 1017.97 1018.33 1018.53 1018.65 1018.81 1018.93 1018.89 1019.01 1019.05 1019.01 1019.01 1019.05 1019.05 1019.21 1019.29 1019.25 1019.17 1019.25 1019.21 1019.13 1018.93 1018.81 1018.57 1018.41 1018.25 1018.09 1017.85 1017.49 1017.37 1017.17 1017.13 1016.89 1016.77 1017.05 1017.09 1017.01 1016.93 1016.85 1016.77 1016.57 1016.45 1016.41 1016.29 1016.25 1016.17 1016.13 1016.17 1016.25 1016.25 1016.17 1015.89 1015.93 1016.05 1016.09 1016.05 1016.25 1016.25 1016.09 1016.01 1016.05 1015.93 1015.93 1016.09 1016.01 1015.81 1015.81 1015.81 1015.77
1019.01 1018.61 1018.41 1018.37 1018.45 1018.53 1018.65 1018.93 1019.21 1019.33 1019.33 1019.49 1019.53 1019.57 1019.49 1019.45 1019.53 1019.65 1019.69 1019.69 1019.69 1019.53 1019.53 1019.61 1019.57 1019.53 1019.37 1019.33 1019.17 1019.05 1018.89 1018.61 1018.29 1017.97 1017.77 1017.57 1017.33 1017.33 1017.29 1017.29 1017.21 1017.05 1017.01 1017.05 1017.05 1016.93 1016.69 1016.53 1016.41 1016.37 1016.37 1016.33 1016.17 1016.33 1016.41 1016.53 1016.45 1016.25 1016.09 1016.09 1016.13 1016.41 1016.49 1016.45 1016.37 1016.25 1016.17 1016.13 1016.13 1016.17 1016.01 1016.13 1016.09 1015.93
1018.89 1018.93 1019.05 1019.13 1019.09 1019.21 1019.29 1019.57 1019.77 1019.85 1019.89 1019.93 1019.97 1020.05 1019.97 1019.89 1019.93 1019.93 1019.97 1019.97 1019.81 1019.77 1019.85 1019.85 1019.85 1019.77 1019.73 1019.73 1019.57 1019.49 1019.33 1019.13 1018.89 1018.53 1018.21 1018.01 1017.89 1017.89 1017.81 1017.65 1017.41 1017.29 1017.21 1017.13 1017.09 1016.93 1016.77 1016.69 1016.61 1016.61 1016.53 1016.57 1016.57 1016.53 1016.49 1016.53 1016.57 1016.37 1016.29 1016.33 1016.41 1016.45 1016.61 1016.53 1016.49 1016.41 1016.33 1016.29 1016.25 1016.25 1016.17 1016.17 1016.25 1016.25
1019.17 1019.17 1019.29 1019.41 1019.53 1019.53 1019.65 1019.81 1019.81 1019.85 1019.97 1020.09 1020.17 1020.25 1020.21 1020.29 1020.21 1020.21 1020.29 1020.21 1020.09 1020.13 1020.17 1020.17 1020.13 1020.09 1020.01 1020.01 1019.89 1019.81 1019.65 1019.49 1019.33 1019.13 1018.85 1018.69 1018.53 1018.37 1018.25 1018.17 1018.09 1018.05 1017.89 1017.77 1017.53 1017.25 1016.97 1016.89 1016.89 1017.01 1017.25 1017.41 1017.37 1017.21 1016.89 1016.65 1016.73 1016.73 1016.53 1016.61 1016.57 1016.61 1016.61 1016.57 1016.49 1016.45 1016.37 1016.29 1016.21 1016.17 1016.25 1016.37 1016.37 1016.45
1019.41 1019.37 1019.41 1019.53 1019.53 1019.57 1019.73 1019.81 1019.89 1019.97 1020.05 1020.21 1020.33 1020.33 1020.41 1020.45 1020.45 1020.41 1020.41 1020.25 1020.25 1020.33 1020.33 1020.33 1020.37 1020.33 1020.29 1020.25 1020.17 1020.09 1019.97 1019.85 1019.77 1019.53 1019.33 1019.17 1019.01 1018.85 1018.69 1018.57 1018.41 1018.33 1018.25 1018.05 1017.85 1017.57 1017.25 1017.17 1017.05 1017.17 1017.29 1017.49 1017.61 1017.69 1017.45 1016.97 1016.73 1016.65 1016.53 1016.61 1016.65 1016.65 1016.61 1016.61 1016.57 1016.49 1016.41 1016.33 1016.29 1016.33 1016.41 1016.41 1016.41 1016.57
1019.61 1019.53 1019.57 1019.65 1019.69 1019.73 1019.77 1019.85 1019.97 1020.17 1020.25 1020.29 1020.41 1020.45 1020.45 1020.45 1020.45 1020.53 1020.45 1020.41 1020.45 1020.45 1020.45 1020.49 1020.53 1020.49 1020.45 1020.41 1020.37 1020.33 1020.21 1020.09 1019.93 1019.81 1019.65 1019.53 1019.41 1019.29 1019.13 1019.01 1018.77 1018.57 1018.41 1018.13 1017.89 1017.69 1017.41 1017.25 1017.33 1017.37 1017.41 1017.61 1017.65 1017.65 1017.57 1017.09 1017.05 1016.65 1016.57 1016.57 1016.69 1016.69 1016.65 1016.69 1016.69 1016.61 1016.53 1016.41 1016.45 1016.41 1016.37 1016.37 1016.57 1016.81
1019.53 1019.61 1019.77 1019.97 1020.05 1020.09 1020.17 1020.21 1020.25 1020.45 1020.49 1020.49 1020.53 1020.53 1020.49 1020.49 1020.49 1020.53 1020.53 1020.53 1020.49 1020.53 1020.57 1020.57 1020.61 1020.57 1020.61 1020.57 1020.49 1020.41 1020.37 1020.25 1020.21 1020.09 1019.93 1019.77 1019.61 1019.45 1019.25 1019.05 1018.93 1018.69 1018.57 1018.37 1018.09 1018.01 1017.81 1017.69 1017.73 1017.73 1017.69 1017.69 1017.73 1017.73 1017.69 1017.77 1017.25 1016.61 1016.45 1016.49 1016.53 1016.61 1016.65 1016.73 1016.77 1016.69 1016.61 1016.61 1016.53 1016.45 1016.53 1017.01 1017.09 1017.13
1019.57 1019.65 1019.89 1020.05 1020.25 1020.29 1020.37 1020.41 1020.49 1020.53 1020.57 1020.49 1020.45 1020.37 1020.41 1020.49 1020.53 1020.57 1020.61 1020.65 1020.69 1020.69 1020.77 1020.81 1020.81 1020.77 1020.73 1020.69 1020.65 1020.53 1020.45 1020.45 1020.41 1020.29 1020.09 1019.93 1019.73 1019.53 1019.33 1019.13 1018.97 1018.85 1018.69 1018.49 1018.33 1018.13 1017.93 1017.81 1017.65 1017.57 1017.53 1017.49 1017.45 1017.49 1017.53 1017.53 1017.29 1016.85 1016.41 1016.01 1016.01 1016.21 1016.45 1016.57 1016.61 1016.61 1016.69 1016.65 1016.57 1016.57 1016.61 1016.85 1017.25 1017.61
1019.81 1019.97 1020.09 1020.17 1020.29 1020.33 1020.41 1020.53 1020.65 1020.77 1020.89 1020.89 1020.85 1020.73 1020.69 1020.69 1020.77 1020.89 1020.89 1021.05 1021.21 1021.37 1021.57 1021.61 1021.53 1021.45 1021.37 1021.25 1021.05 1020.85 1020.73 1020.61 1020.45 1020.29 1020.09 1019.93 1019.77 1019.57 1019.33 1019.13 1019.01 1018.81 1018.73 1018.45 1018.29 1018.09 1017.89 1017.65 1017.37 1017.21 1017.25 1017.37 1017.41 1017.49 1017.41 1017.29 1017.01 1016.57 1016.33 1015.89 1015.85 1016.17 1016.25 1016.25 1016.37 1016.45 1016.57 1016.53 1016.57 1016.61 1016.65 1016.65 1016.73 1017.29
1020.13 1020.41 1020.45 1020.45 1020.53 1020.61 1020.69 1020.89 1021.05 1021.17 1021.33 1021.37 1021.37 1021.33 1021.41 1021.61 1021.77 1021.77 1021.85 1021.93 1022.01 1022.13 1022.21 1022.21 1022.17 1022.01 1021.85 1021.69 1021.49 1021.25 1021.01 1020.81 1020.69 1020.45 1020.21 1020.05 1019.89 1019.69 1019.45 1019.25 1019.09 1018.81 1018.69 1018.53 1018.33 1018.09 1017.73 1017.49 1017.25 1017.21 1017.37 1017.45 1017.53 1017.57 1017.45 1017.33 1017.29 1016.81 1016.45 1016.13 1015.97 1015.97 1016.05 1016.05 1016.21 1016.29 1016.33 1016.41 1016.57 1016.73 1016.73 1016.73 1016.69 1017.05
1020.61 1020.81 1020.89 1020.93 1020.89 1021.01 1021.13 1021.29 1021.41 1021.49 1021.69 1021.73 1021.85 1021.89 1022.01 1022.25 1022.45 1022.57 1022.73 1022.77 1022.81 1022.81 1022.85 1022.85 1022.73 1022.57 1022.41 1022.17 1021.93 1021.65 1021.45 1021.25 1020.97 1020.73 1020.49 1020.25 1020.05 1019.97 1019.77 1019.57 1019.37 1019.25 1019.13 1018.89 1018.57 1018.21 1017.97 1017.73 1017.53 1017.57 1017.57 1017.61 1017.57 1017.61 1017.53 1017.13 1017.01 1016.81 1016.53 1016.17 1015.97 1016.09 1016.01 1016.01 1016.25 1016.37 1016.49 1016.49 1016.45 1016.45 1016.49 1016.53 1016.81 1017.05
1021.17 1021.25 1021.37 1021.37 1021.41 1021.49 1021.53 1021.61 1021.69 1021.73 1021.85 1022.01 1022.17 1022.33 1022.53 1022.77 1023.05 1023.21 1023.25 1023.29 1023.25 1023.29 1023.25 1023.17 1023.09 1022.93 1022.77 1022.53 1022.25 1021.97 1021.73 1021.45 1021.17 1020.97 1020.81 1020.61 1020.41 1020.33 1020.17 1019.97 1019.73 1019.73 1019.61 1019.41 1019.01 1018.61 1018.33 1018.21 1018.09 1017.85 1017.73 1017.69 1017.53 1017.41 1017.25 1017.13 1016.93 1016.65 1016.41 1016.17 1016.13 1016.13 1016.13 1016.17 1016.21 1016.33 1016.33 1016.29 1016.33 1016.45 1016.49 1016.41 1016.29 1016.29
1021.65 1021.69 1021.77 1021.85 1021.85 1021.89 1021.89 1021.89 1021.89 1022.01 1022.17 1022.41 1022.65 1022.89 1023.09 1023.21 1023.41 1023.57 1023.61 1023.61 1023.61 1023.61 1023.57 1023.53 1023.37 1023.25 1023.01 1022.77 1022.57 1022.33 1022.01 1021.57 1021.41 1021.25 1021.09 1020.89 1020.69 1020.61 1020.41 1020.17 1019.97 1019.93 1019.85 1019.65 1019.37 1019.09 1018.81 1018.65 1018.37 1018.09 1017.97 1017.85 1017.65 1017.53 1017.29 1017.05 1016.97 1016.89 1016.73 1016.61 1016.45 1016.33 1016.21 1016.09 1016.09 1016.13 1016.21 1016.13 1016.09 1016.25 1016.33 1016.37 1016.37 1016.29
Wind_Speed
3 5 5 2 1 0 6 6 6 3 3 5 1 3 3 4 2 1 1 2 2 3 1 0 1 2 1 4 3 4 4 4 6 3 3 4 4 3 3 2 3 3 6 3 4 5 6 6 7 7 5 3 5 10 12 11 11 10 10 9 10 9 8 7 6 8 8 7 7 7 7 8 9 12
3 4 4 2 1 2 3 1 4 1 3 3 1 1 3 5 4 3 2 4 2 3 3 1 1 2 5 3 5 3 4 8 8 4 3 4 2 6 5 3 4 4 5 2 3 4 6 6 7 7 7 7 0 8 12 12 11 11 10 10 10 10 9 7 6 6 7 6 5 6 9 11 11 11
4 2 3 3 3 3 3 3 4 9 12 8 5 8 2 3 3 4 3 1 3 0 2 2 1 1 2 3 3 5 5 6 7 6 4 2 6 8 4 4 2 5 4 2 2 4 6 6 7 7 6 7 5 7 11 12 12 11 10 10 10 10 9 8 7 6 6 5 4 5 10 11 10 10
2 3 3 3 3 3 4 5 5 7 4 4 1 2 4 3 3 4 4 3 6 2 2 3 2 3 3 4 3 5 5 5 8 5 5 1 7 4 3 3 4 5 3 1 2 5 6 6 7 7 7 6 8 3 12 11 11 11 10 10 10 10 9 8 8 7 6 4 3 5 9 10 11 11
2 2 3 3 3 3 4 2 2 2 3 1 3 3 2 3 1 3 3 4 4 4 3 2 1 3 3 3 1 4 5 7 7 6 3 3 5 5 3 3 3 5 3 1 2 5 5 6 7 7 8 8 7 6 5 9 8 9 10 11 10 9 9 9 9 8 7 5 5 6 8 9 9 10
1 2 2 3 3 1 2 1 2 2 2 4 2 0 1 1 2 1 2 3 2 4 3 3 2 2 1 3 2 3 6 7 6 7 6 1 5 3 4 3 3 4 3 1 3 4 6 7 8 9 9 9 9 8 5 9 6 7 8 9 9 9 9 8 9 9 7 6 4 5 7 9 9 8
1 1 1 2 2 1 1 2 2 2 2 1 1 1 0 2 4 2 1 2 3 4 4 2 2 2 1 2 4 4 4 5 6 6 4 4 1 3 3 3 2 3 2 3 4 4 5 7 8 9 8 10 10 10 8 5 6 6 7 8 8 9 9 8 8 8 8 8 6 3 6 9 9 10
1 2 1 2 2 1 1 2 1 1 4 3 3 1 3 3 3 2 3 3 3 2 3 3 3 2 2 4 4 4 5 5 5 4 2 3 2 1 4 3 3 3 4 3 4 4 4 6 7 9 10 9 10 10 9 9 8 6 6 6 7 7 8 8 8 8 8 8 7 6 5 8 9 9
3 3 2 3 3 1 2 3 2 2 1 3 2 2 3 2 3 2 4 3 2 3 5 4 3 2 2 4 4 4 4 4 4 2 1 2 2 3 0 4 3 5 5 6 5 3 3 6 8 8 9 10 10 10 9 8 8 6 5 5 6 6 6 7 8 8 7 6 7 7 6 6 8 7
3 3 3 4 3 3 3 4 2 2 2 2 3 3 3 4 4 4 3 3 3 4 5 4 5 2 3 3 3 4 3 5 4 3 2 2 1 2 3 1 4 4 4 4 4 4 3 4 7 8 9 10 10 9 8 8 7 7 6 4 4 6 7 7 7 8 8 7 6 6 6 6 6 8
4 4 4 4 4 5 5 3 3 2 2 3 3 4 4 3 5 4 4 4 4 5 5 4 5 5 4 4 5 4 3 3 2 2 3 3 1 0 1 2 2 3 5 5 8 7 6 5 4 5 8 10 11 9 8 7 7 6 6 5 4 4 5 7 7 6 8 8 8 8 7 6 7 8
5 5 6 6 5 5 5 3 3 1 2 2 2 3 3 2 3 3 4 4 5 5 5 5 5 4 5 5 5 2 1 3 3 0 1 3 4 4 2 3 3 2 2 5 4 5 6 4 4 4 4 8 11 10 8 7 7 6 6 5 4 3 4 5 6 6 7 7 8 8 8 8 7 7
5 5 5 3 2 2 1 2 4 7 5 3 2 3 3 3 4 4 3 5 4 5 5 6 4 5 6 6 5 5 4 4 5 2 1 3 3 5 5 4 4 5 3 4 5 6 6 5 4 4 4 4 6 6 5 6 7 7 6 6 5 4 2 3 5 6 6 7 7 7 7 7 8 8
2 3 2 4 5 10 12 12 11 9 8 6 3 1 2 3 3 4 4 4 5 5 6 6 6 6 7 6 5 5 4 3 1 1 2 3 3 2 4 5 4 4 3 4 5 6 6 6 5 5 3 4 4 3 2 2 4 5 6 6 5 5 4 2 3 4 5 6 5 5 5 6 6 7
3 3 3 4 9 8 8 9 12 10 10 8 7 7 7 5 3 3 5 4 4 4 5 5 5 6 7 6 4 5 4 2 3 4 3 4 2 2 2 4 5 1 4 2 3 5 7 5 6 4 4 4 4 2 4 6 8 8 7 6 6 5 6 5 4 3 3 4 4 4 5 4 4 5
3 3 3 4 5 6 7 6 6 7 9 8 8 8 9 9 9 7 5 5 5 4 6 6 6 5 6 6 4 4 3 5 5 6 4 4 4 4 4 2 3 2 0 1 1 1 5 6 5 5 3 3 2 2 5 8 7 8 9 8 7 6 6 6 6 5 4 4 5 5 4 5 5 4
4 3 4 4 5 5 9 6 5 4 5 8 10 9 9 8 10 10 9 8 8 6 6 7 7 5 4 5 3 1 2 4 8 4 3 3 3 4 5 5 3 5 1 1 2 2 4 6 6 5 4 3 2 4 4 7 8 9 9 10 9 8 7 7 7 7 6 6 5 5 4 5 5 5
2 2 3 4 4 4 5 4 5 4 4 4 5 4 4 4 7 9 8 10 9 4 3 5 6 6 6 7 6 7 5 7 8 6 4 3 4 4 6 3 4 5 3 5 2 1 1 5 5 5 4 4 3 2 4 7 7 8 10 9 9 10 9 8 8 7 7 6 5 5 5 5 4 4
1 2 3 6 5 3 3 3 5 4 5 5 5 4 4 5 5 4 9 8 7 7 7 6 6 6 5 5 6 5 5 6 5 2 3 4 3 3 2 5 5 6 3 2 2 3 0 1 4 4 5 4 2 2 1 4 6 7 8 9 10 10 10 10 9 8 8 7 6 6 6 6 6 5
3 5 7 5 4 2 2 5 7 7 5 4 4 5 5 4 5 4 6 7 7 7 6 5 6 6 7 7 6 6 4 5 4 4 2 4 3 1 3 4 4 5 1 1 2 1 1 2 5 4 3 3 3 2 1 2 4 6 8 9 10 10 10 10 10 9 9 8 7 7 7 8 8 7
6 6 5 4 3 2 1 3 5 8 8 3 4 4 5 5 4 5 6 8 8 9 9 9 9 11 13 11 9 10 8 4 4 3 3 4 2 2 3 4 5 5 2 1 1 2 2 2 2 4 3 3 1 1 1 1 4 4 5 8 10 10 11 11 11 11 10 10 9 9 8 8 8 9
5 6 11 6 3 2 1 3 5 8 6 3 4 4 4 5 5 6 6 6 6 9 9 9 9 10 10 10 9 9 9 7 4 2 5 3 1 4 4 4 4 2 1 0 1 1 1 2 1 4 3 3 2 2 3 3 2 2 2 5 5 8 10 10 10 10 9 8 9 8 9 9 9 5
5 5 6 7 5 3 2 3 4 6 7 3 3 4 3 4 4 4 5 6 7 7 7 6 6 6 7 6 5 6 9 8 5 3 3 3 2 4 3 3 2 3 1 4 5 1 1 1 0 5 4 2 2 4 3 2 1 0 1 1 3 5 4 5 7 8 8 8 8 8 8 9 7 4
3 2 2 2 3 3 3 3 5 5 6 3 4 4 3 3 3 3 5 5 5 6 6 7 6 6 6 5 5 5 6 5 2 3 4 3 3 4 4 4 5 3 2 0 4 3 2 1 3 2 4 4 3 3 3 1 1 1 2 2 3 3 3 2 1 5 7 5 5 5 6 7 8 4
4 2 1 1 2 3 5 5 5 6 6 5 3 4 3 2 5 7 5 7 10 6 6 5 6 6 6 6 6 6 6 5 3 1 1 2 3 4 4 4 2 2 2 4 9 3 2 3 3 3 4 2 2 3 2 2 2 3 4 4 4 2 1 3 2 2 3 4 4 3 5 4 5 6
4 2 2 1 3 5 5 4 5 5 4 5 1 3 5 8 8 5 6 6 6 5 5 6 6 6 6 6 7 7 8 9 7 5 6 6 5 5 4 2 2 3 3 5 9 2 3 5 4 3 3 3 3 2 3 2 3 5 4 5 5 4 5 4 3 3 3 3 2 2 2 2 4 6
3 3 3 3 8 7 6 5 5 4 5 4 2 5 7 7 8 7 5 5 6 7 6 6 7 7 8 8 8 8 8 7 7 7 7 8 8 8 8 8 7 6 4 5 6 4 2 3 1 4 3 2 3 4 1 1 2 4 5 5 7 5 5 6 6 5 4 4 3 3 2 2 3 8
3 4 4 4 7 7 7 7 5 6 5 3 7 8 7 8 8 4 4 6 7 7 8 8 7 7 7 7 7 7 7 6 6 6 7 7 7 8 7 7 7 6 7 7 8 8 6 4 4 3 5 5 3 1 0 1 2 3 2 3 4 4 5 6 6 5 4 3 3 2 2 2 2 4
4 6 8 8 7 8 9 10 7 4 6 8 7 8 9 8 5 3 5 7 7 9 9 8 7 7 8 7 7 6 7 7 7 5 4 4 4 3 2 4 6 5 5 6 7 7 6 4 4 3 6 3 4 1 2 0 2 4 4 4 2 4 5 2 4 5 3 2 2 1 2 1 1 2
8 8 9 8 5 5 6 5 3 1 1 4 3 3 5 3 4 7 6 7 8 8 8 8 8 7 6 5 6 6 7 7 8 7 6 6 6 6 6 5 5 5 6 6 6 7 7 7 6 3 3 3 4 3 1 2 2 2 3 3 2 1 6 6 6 5 5 4 3 2 2 3 3 2
6 8 6 5 7 7 9 8 6 3 4 3 4 3 4 6 6 6 6 6 7 7 7 7 7 7 7 7 6 7 7 7 7 7 7 6 5 5 4 4 5 4 4 5 5 5 6 6 6 6 4 2 1 3 0 1 1 2 2 2 5 3 2 4 5 5 4 4 3 3 4 4 4 4
6 5 6 7 4 3 3 3 1 4 4 6 6 5 6 6 7 8 12 10 7 6 4 5 6 7 7 8 7 7 7 7 7 7 6 6 6 5 4 5 4 2 3 3 4 5 6 5 5 3 3 3 4 4 2 1 1 2 2 2 3 3 3 4 3 3 3 2 4 4 4 3 4 2
4 4 5 5 6 4 2 4 7 8 8 6 6 7 5 6 7 7 8 8 8 8 8 8 8 8 8 8 8 7 7 7 6 6 7 6 6 5 4 4 5 5 3 2 4 5 5 6 7 7 6 5 3 4 5 5 3 2 3 2 3 3 2 2 3 2 1 3 3 2 3 3 3 2
3 5 6 8 8 8 7 7 6 6 6 6 5 6 7 8 8 9 8 8 7 7 7 7 7 8 8 8 8 8 8 8 8 8 7 6 5 6 6 5 4 2 4 3 2 2 3 3 3 4 5 6 4 4 3 3 4 4 2 2 4 4 3 2 3 2 2 2 0 1 3 3 3 4
6 7 8 7 8 8 8 8 7 6 7 7 7 7 7 8 8 7 7 6 6 7 6 7 7 6 7 6 7 7 8 8 8 8 8 8 8 8 8 7 6 6 7 6 1 1 1 2 4 4 3 4 4 1 5 4 3 4 2 4 3 4 2 1 1 2 1 1 0 1 1 3 4 4
6 6 7 7 7 6 7 6 5 6 6 6 7 6 7 6 5 6 6 5 6 6 6 6 6 6 6 6 6 7 7 8 7 8 8 7 7 7 7 6 7 8 7 8 6 4 3 3 4 4 4 4 4 4 3 5 4 2 1 1 1 2 0 1 1 2 3 4 3 3 3 3 2 2
5 6 6 6 5 6 6 5 6 6 6 6 6 6 5 5 5 5 4 4 6 6 5 5 6 6 6 6 6 6 7 7 7 7 7 7 7 7 7 6 6 6 6 6 5 6 4 2 2 3 4 3 3 3 4 3 6 5 2 2 1 1 1 1 2 3 3 2 4 4 2 2 1 2
4 4 6 5 5 5 5 5 6 6 6 6 5 5 4 4 4 4 3 5 5 5 5 5 5 5 5 5 6 6 5 6 6 6 7 7 8 8 7 6 7 7 7 7 6 6 6 2 4 3 4 3 4 4 5 3 3 4 2 2 1 1 1 2 2 2 2 3 2 2 2 3 3 2
4 5 6 7 6 6 6 6 6 6 5 5 4 3 3 3 4 3 4 4 4 4 4 5 5 4 4 4 4 5 5 6 6 6 6 6 6 6 6 6 6 6 7 7 7 6 5 6 4 4 3 2 2 3 3 4 6 7 4 5 4 3 2 2 2 2 0 1 1 3 2 7 8 9
5 5 6 6 6 6 6 6 6 5 5 3 4 3 3 3 4 3 4 4 3 4 5 5 6 6 5 6 4 5 5 5 5 5 5 5 5 6 6 5 6 6 5 5 5 4 3 1 1 1 1 2 4 4 3 5 5 6 7 7 13 9 4 4 4 3 2 2 1 2 3 3 4 2
5 6 6 6 5 5 5 5 6 7 7 6 7 7 7 5 6 7 4 5 7 8 9 8 8 7 7 7 7 6 5 4 5 5 5 5 6 6 8 7 5 6 5 5 5 5 5 5 5 6 4 2 1 1 2 3 6 7 7 7 3 6 8 8 4 3 2 1 0 0 1 2 1 4
6 6 6 6 6 6 7 8 7 7 7 7 7 8 9 9 9 13 11 11 9 8 7 8 7 7 7 7 7 6 6 6 6 7 6 6 5 5 7 6 6 7 7 7 6 6 7 4 4 1 1 0 1 1 4 5 6 7 6 4 0 5 10 10 7 4 2 1 1 1 1 2 2 2
7 6 6 6 7 7 7 7 7 7 7 7 7 7 8 9 8 9 8 8 7 7 7 7 7 6 7 7 7 6 6 7 7 7 6 6 6 6 7 7 7 7 7 6 6 6 6 7 4 2 1 1 2 1 5 7 6 7 5 3 2 3 5 6 4 3 1 2 4 3 2 3 3 0
6 7 7 7 7 7 7 7 6 6 6 7 7 7 8 8 8 7 7 6 7 6 6 6 6 6 6 6 6 6 6 6 6 6 7 6 6 6 6 6 5 5 6 6 6 7 7 7 7 6 4 3 2 3 5 5 6 6 6 3 2 3 3 2 0 1 3 6 6 5 5 5 5 7
7 7 7 7 7 7 7 6 6 7 7 7 8 7 7 6 6 6 6 6 6 6 6 5 5 5 5 5 6 6 6 6 5 5 5 6 5 6 6 6 5 5 6 6 6 6 6 6 6 6 6 7 6 4 4 4 5 5 5 5 4 2 1 1 2 4 4 5 4 8 9 8 7 6
Wind_Direction
310 312 297 293 227 114 289 290 273 249 199 228 199 145 146 156 142 252 282 276 260 292 334 310 291 346 343 328 315 306 312 315 320 321 237 225 221 206 174 216 246 103 73 10 333 3 11 19 22 21 27 70 158 157 152 148 143 138 136 131 127 121 115 104 96 102 95 79 70 62 60 63 70 82
292 279 298 314 260 209 192 265 339 16 267 345 334 180 158 144 163 182 203 269 246 275 309 310 293 331 327 323 314 316 322 316 317 326 336 230 200 174 190 203 212 102 84 29 341 25 35 41 36 29 17 1 311 167 155 149 146 145 141 138 132 128 123 112 110 108 102 85 76 82 84 78 74 73
256 267 301 320 332 329 12 356 353 38 45 31 16 332 277 179 157 168 164 238 285 228 281 289 336 340 287 291 306 311 316 308 315 316 318 287 166 169 186 194 198 105 93 57 21 49 59 55 55 42 32 15 1 174 158 152 150 147 145 142 137 135 133 126 123 121 113 97 85 93 106 102 90 78
318 357 336 325 326 352 22 14 25 82 131 149 205 248 290 261 182 163 164 187 258 269 240 260 275 333 312 298 303 310 312 310 313 313 313 116 152 171 169 179 190 112 104 61 58 72 67 71 66 59 48 45 21 162 161 157 152 148 146 144 142 142 139 137 137 134 126 117 106 109 113 115 113 103
33 52 40 5 10 30 44 16 49 123 100 126 229 257 350 324 271 170 175 198 260 294 262 252 267 301 317 307 286 307 312 315 314 313 302 162 183 181 176 154 167 115 105 77 52 65 71 75 73 69 66 59 48 33 151 154 150 147 147 141 144 146 147 148 147 143 142 143 140 135 128 126 123 120
51 66 24 341 332 39 58 353 345 166 143 195 212 83 287 288 252 270 161 194 215 267 311 324 285 286 291 296 266 276 307 307 310 313 321 339 179 184 163 146 149 114 117 128 69 58 66 73 79 77 69 69 60 53 72 139 142 148 142 137 146 152 156 157 155 152 151 152 156 149 140 137 135 129
46 21 28 294 279 266 357 315 314 142 164 129 233 208 266 296 262 232 139 157 236 265 274 255 289 263 292 250 276 289 281 283 286 297 325 359 56 170 155 154 106 139 139 109 77 59 60 67 79 81 75 69 66 62 55 91 140 128 124 138 152 158 164 161 162 162 161 160 161 157 152 152 148 147
176 222 255 266 275 289 310 268 218 210 159 179 223 201 195 214 268 215 190 187 188 241 258 279 231 256 270 281 274 285 288 281 287 284 299 338 33 26 173 142 151 149 151 124 88 62 64 77 79 85 85 81 77 71 68 63 64 83 120 144 157 166 172 166 169 171 172 169 165 167 163 166 164 160
199 215 219 248 242 246 247 271 277 270 218 179 206 249 248 232 266 228 213 198 183 206 243 276 264 249 255 256 274 264 274 295 292 286 19 332 12 24 1 144 114 131 154 131 109 82 80 90 89 91 93 91 86 85 82 78 74 72 90 130 154 176 183 183 176 177 177 180 177 176 176 170 174 173
211 215 232 239 239 236 220 237 250 260 280 164 216 233 221 206 226 227 224 189 196 216 241 240 289 302 267 295 269 260 247 270 289 311 327 338 42 48 9 176 163 183 180 160 139 144 134 97 98 101 103 100 95 93 94 94 92 96 94 103 154 177 193 201 200 182 178 178 189 190 188 181 173 178
210 216 227 242 232 230 225 228 230 246 271 200 227 230 250 222 200 210 227 212 211 222 245 261 247 271 276 251 274 272 244 255 249 244 325 323 287 76 262 279 253 190 188 164 159 159 161 152 124 116 109 107 104 100 92 89 95 95 97 110 121 152 200 210 208 203 200 188 191 189 192 194 185 180
217 219 228 232 233 224 228 202 211 245 300 342 327 329 330 274 215 226 223 224 227 238 243 247 269 256 273 281 256 271 13 322 326 288 188 269 289 288 274 244 249 248 205 167 164 133 129 126 126 148 134 116 111 106 99 93 89 83 87 92 111 137 170 206 214 207 212 214 207 198 191 190 190 192
228 237 244 245 303 338 232 254 92 81 71 46 22 354 349 330 299 269 239 232 230 242 248 264 262 274 276 266 275 281 277 248 255 237 181 257 268 285 302 280 230 223 193 168 154 161 163 154 170 175 158 134 112 95 105 99 89 88 87 84 94 103 119 179 204 208 214 217 219 218 211 199 195 195
0 31 36 341 26 52 53 57 48 42 42 34 30 300 289 292 302 296 286 274 258 260 258 259 267 271 265 263 256 252 244 237 253 278 245 268 289 313 290 291 264 206 203 158 179 187 171 164 179 191 173 128 108 119 120 122 115 101 95 93 100 110 114 130 172 203 211 217 218 222 228 225 214 207
62 30 21 56 64 49 46 37 37 27 24 14 6 351 337 311 284 286 283 273 289 281 275 274 270 264 275 275 264 252 252 235 217 224 213 246 301 295 317 309 313 198 176 194 202 208 173 168 170 172 154 136 120 136 146 139 127 115 104 99 98 106 123 124 132 142 174 193 200 205 216 220 222 226
78 56 40 62 67 55 46 47 23 13 358 354 348 344 345 339 319 278 249 266 275 272 281 286 279 287 284 292 305 316 330 302 284 247 225 219 238 259 256 245 247 256 163 155 239 215 170 166 153 144 143 124 131 143 157 138 134 128 118 108 99 95 96 110 118 115 124 146 158 179 187 189 195 197
60 40 46 66 59 43 38 33 17 3 346 340 339 332 327 323 323 327 309 252 232 257 270 283 286 282 299 309 289 309 317 307 286 298 290 268 265 280 283 258 275 294 237 145 228 208 206 165 157 146 140 138 142 149 167 150 144 134 129 125 118 108 101 99 103 107 103 97 103 125 150 169 170 171
87 58 37 64 62 38 34 16 3 345 338 322 312 312 306 301 317 311 313 5 5 6 307 313 302 312 316 296 301 303 295 286 279 275 284 298 273 252 247 277 289 288 308 238 192 279 254 144 137 147 159 155 141 142 160 156 153 143 136 131 125 124 118 113 111 110 108 108 108 103 105 116 131 142
147 134 82 83 87 57 34 14 356 344 328 317 312 320 327 325 319 13 39 21 18 12 358 346 330 322 324 316 309 301 297 284 287 247 266 296 294 303 338 302 274 272 274 288 146 221 307 92 139 168 157 136 98 91 162 167 159 150 143 137 135 133 131 129 126 125 124 125 125 126 125 123 125 124
60 78 91 98 95 72 29 353 344 333 319 311 328 332 326 335 335 68 34 33 10 359 335 321 316 314 303 297 291 292 290 287 275 292 281 252 247 286 291 274 270 254 241 268 192 171 148 288 153 155 112 107 117 147 123 217 180 167 159 150 146 143 142 141 140 139 140 140 141 139 138 140 139 132
82 86 91 101 108 86 17 335 329 332 334 330 344 338 342 335 331 17 347 357 357 339 326 317 314 312 309 300 289 290 281 259 275 263 279 278 209 198 258 292 287 261 208 232 170 155 171 233 140 134 119 136 130 84 231 210 211 200 194 172 164 161 158 156 154 154 155 156 156 158 156 152 141 130
78 96 99 97 99 76 349 341 331 345 346 353 352 357 341 352 8 351 345 338 333 322 315 319 317 311 309 304 287 281 281 272 235 248 268 304 283 249 216 235 221 259 268 250 130 163 191 178 197 126 122 116 107 166 209 211 154 176 260 260 208 177 171 167 164 161 162 162 164 166 166 160 147 137
87 64 62 74 74 70 5 352 348 358 10 6 355 344 4 12 352 327 332 326 323 330 333 327 327 326 323 320 307 302 301 297 272 216 260 306 283 259 233 238 270 273 221 30 358 297 236 141 102 121 113 164 177 170 186 181 125 49 266 232 264 255 222 182 159 154 160 170 176 180 179 175 158 147
104 117 106 63 73 85 76 27 10 8 13 7 338 343 25 6 327 326 326 301 306 316 315 311 319 317 317 316 314 309 310 304 297 203 222 230 244 256 264 264 253 248 30 242 287 259 260 191 154 212 168 144 180 178 125 187 163 219 206 251 262 254 272 273 213 187 176 178 189 198 205 198 188 165
54 86 135 146 88 77 59 40 24 16 3 1 346 336 356 330 319 332 318 306 321 309 309 324 325 329 332 332 338 338 332 319 293 283 271 279 287 290 266 257 307 81 334 348 323 196 31 11 26 26 38 51 87 116 148 167 206 215 214 216 235 221 227 264 260 239 214 192 191 224 235 153 138 154
17 5 2 42 73 40 49 35 19 2 6 342 336 322 310 308 326 321 301 301 299 307 326 341 351 350 351 3 9 20 18 6 10 34 33 35 23 15 18 356 116 98 353 324 338 18 104 46 32 50 21 41 15 65 102 199 208 208 201 215 224 208 197 209 225 247 227 212 169 205 225 20 55 69
326 314 334 17 29 351 354 352 330 325 332 340 312 313 318 304 304 306 307 306 3 10 2 14 14 11 14 21 18 20 23 19 24 29 31 34 34 26 25 49 64 72 24 1 6 357 65 112 53 92 90 51 43 351 34 222 229 169 193 215 229 214 197 191 205 212 212 204 189 169 127 31 83 67
295 324 338 343 333 325 313 312 313 310 309 293 296 299 300 302 304 321 322 8 20 16 13 13 15 20 19 23 23 17 14 18 27 35 41 41 44 54 31 27 41 47 44 32 23 22 32 69 69 57 112 123 131 197 249 338 36 55 163 220 214 214 202 207 205 201 203 192 137 157 151 196 130 112
350 320 312 326 322 300 298 292 301 297 282 269 263 279 297 314 311 343 28 30 24 25 17 8 14 19 24 25 22 11 9 16 17 19 18 18 27 33 52 54 47 34 40 40 36 37 33 45 54 52 59 51 102 69 59 10 16 11 16 28 4 350 12 267 188 172 166 115 111 184 216 208 189 204
326 323 315 302 288 285 280 292 281 260 295 261 238 281 286 292 42 59 48 39 35 30 17 17 12 11 6 10 17 19 22 24 14 359 6 8 10 8 6 10 23 34 39 40 41 37 36 29 27 1 67 64 86 98 68 61 39 359 29 48 316 18 25 17 29 43 66 81 99 87 51 71 55 56
335 319 310 286 274 257 257 256 265 282 8 25 51 41 52 52 50 50 56 48 42 34 27 16 15 11 10 6 10 17 18 19 14 3 6 7 355 358 359 10 358 12 30 33 34 51 50 39 27 23 34 7 68 89 142 112 103 17 34 46 67 97 310 13 28 33 36 58 50 37 21 20 27 34
306 304 301 294 267 240 229 232 333 34 77 79 83 69 56 49 41 43 46 50 40 34 20 19 16 14 9 14 7 8 8 6 1 4 4 3 355 348 341 345 349 335 353 26 38 28 38 36 32 26 45 31 357 322 344 54 135 163 121 65 87 96 108 90 63 32 11 43 44 17 345 0 26 50
303 314 330 344 2 36 75 77 68 74 76 74 66 68 60 52 44 35 31 35 32 20 23 25 22 15 7 8 4 1 5 360 349 352 354 347 348 337 4 10 5 349 325 359 33 29 31 24 10 9 355 346 323 320 336 329 341 42 98 131 110 83 41 65 102 89 349 55 37 2 327 4 13 94
324 348 18 38 47 48 55 68 69 55 56 64 65 58 51 48 48 43 39 32 26 25 29 29 25 17 12 11 8 7 3 352 350 344 349 335 338 350 349 349 352 356 28 40 55 8 17 23 14 29 17 353 356 44 0 306 307 325 356 115 111 104 46 39 21 13 44 95 102 16 329 17 29 64
21 40 52 49 49 54 60 63 62 63 62 58 60 59 56 53 50 45 41 26 21 25 26 29 25 16 14 10 8 5 360 356 351 352 356 1 2 0 352 348 353 359 2 356 13 307 346 29 34 20 2 10 347 351 57 48 327 331 26 52 65 96 79 34 32 339 8 7 74 102 329 69 65 52
36 45 63 60 60 63 70 74 74 71 71 68 67 65 59 51 46 49 39 16 30 24 30 33 23 14 11 12 7 3 357 358 357 357 360 4 8 8 10 13 12 8 2 360 353 330 342 27 38 40 39 3 351 333 345 19 38 321 19 53 16 80 81 336 323 339 18 9 19 44 54 50 120 156
48 63 62 69 70 68 73 70 73 72 71 74 74 72 74 66 52 56 40 39 45 34 33 39 26 22 17 15 8 6 0 2 359 355 359 356 1 3 6 3 2 357 351 336 336 330 335 354 40 67 51 33 17 338 309 306 334 341 106 80 0 7 3 349 9 14 4 36 22 42 30 356 343 86
48 71 68 57 59 60 63 66 73 72 68 67 73 74 78 87 75 64 44 52 44 36 28 33 25 20 20 14 14 5 2 358 355 358 1 3 5 2 0 359 349 347 339 329 329 324 312 324 53 46 66 48 348 332 316 312 326 312 41 95 349 279 17 33 15 38 336 350 47 338 14 10 80 108
70 77 76 72 64 61 57 54 72 81 83 83 87 98 95 81 74 65 55 54 47 37 28 29 20 12 20 14 11 8 357 356 357 0 2 0 356 350 345 345 342 335 336 331 333 348 17 42 38 47 59 66 320 269 279 299 293 286 273 222 245 247 225 161 195 232 300 349 315 324 17 75 73 73
57 66 73 80 75 72 70 64 68 74 75 68 63 65 76 77 69 60 62 45 38 23 27 22 7 1 2 359 360 360 360 3 0 351 351 343 339 333 328 331 329 326 328 327 335 336 13 18 189 191 200 210 217 229 232 248 263 279 292 268 217 204 189 177 202 177 202 231 255 28 14 133 134 155
67 76 78 88 85 72 74 69 64 59 49 37 31 27 29 37 41 18 20 46 28 34 35 26 21 16 19 8 4 4 3 356 349 337 330 330 326 325 318 320 319 318 316 312 324 317 301 247 239 222 197 193 274 3 358 350 323 314 315 314 330 203 184 185 186 159 180 215 110 67 63 19 76 114
54 60 50 57 64 58 57 61 60 59 51 44 43 45 51 49 43 44 43 39 41 40 33 25 14 12 9 3 354 350 357 345 338 331 324 321 320 323 322 320 310 305 308 308 309 298 290 273 268 256 119 66 13 25 307 292 288 290 294 289 349 194 210 208 173 147 145 139 110 103 52 6 18 53
63 62 61 56 62 60 62 63 64 64 62 56 54 51 57 55 47 43 40 38 34 39 30 22 13 10 5 358 353 350 352 348 341 333 331 331 337 341 343 343 344 345 344 335 323 315 323 331 320 319 326 330 279 217 270 281 280 284 289 289 276 259 250 250 227 175 167 186 162 166 172 163 120 136
57 60 53 49 53 55 59 61 59 62 66 67 62 60 57 60 56 47 43 39 35 31 28 20 14 8 0 351 345 344 345 343 344 347 350 345 350 0 2 355 357 4 358 351 346 1 4 359 357 349 337 315 298 291 287 288 295 298 303 311 15 12 309 293 131 300 268 258 233 209 237 215 201 183
47 51 53 47 47 44 47 47 50 54 61 63 62 61 60 60 60 52 46 39 37 26 24 15 7 360 345 341 342 337 329 335 350 351 352 351 358 2 353 347 349 7 0 347 349 352 354 351 344 356 5 349 342 332 324 350 10 9 4 5 8 353 310 222 192 220 237 268 253 210 213 231 245 246